GW4223 Weather Reports


Display with metric or nautical units.
time (UTC)temp
F
wind
direction
speed
MPH
gust
MPH
rain 1hr
in
rain 24hr
in
rain mn
in
humidity
%
barometer
mb
20260510134726 67 35 1.0 1.0 0.00 0.00 0.00 74 1014.4
20260510134223 66 13 2.0 2.0 0.00 0.00 0.00 74 1014.6
20260510133718 66 358 2.0 2.0 0.00 0.00 0.00 76 1014.6
20260510133215 66 354 2.0 2.0 0.00 0.00 0.00 78 1014.4
20260510132710 65 359 2.0 2.0 0.00 0.00 0.00 77 1014.4
20260510132208 65 8 1.0 1.0 0.00 0.00 0.00 76 1014.4
20260510131705 65 28 1.0 1.0 0.00 0.00 0.00 77 1014.3
20260510131203 63 71 0.0 0.0 0.00 0.00 0.00 81 1014.6
20260510130653 62 18 0.0 1.0 0.00 0.00 0.00 82 1014.6
20260510130151 62 22 0.0 0.0 0.00 0.00 0.00 83 1014.7
20260510125647 62 36 0.0 0.0 0.00 0.00 0.00 85 1014.7
20260510125143 61 18 1.0 2.0 0.00 0.00 0.00 87 1015.0
20260510124641 61 23 2.0 2.0 0.00 0.00 0.00 87 1014.8
20260510124137 61 341 2.0 2.0 0.00 0.00 0.00 87 1014.8
20260510123632 61 20 2.0 2.0 0.00 0.00 0.00 87 1014.7
20260510123128 60 9 1.0 1.0 0.00 0.00 0.00 89 1014.8
20260510122625 59 31 0.0 0.0 0.00 0.00 0.00 92 1014.9
20260510122121 58 0 1.0 1.0 0.00 0.00 0.00 96 1014.8
20260510121618 58 7 2.0 2.0 0.00 0.00 0.00 99 1014.7
20260510121115 57 21 0.0 0.0 0.00 0.00 0.00 99 1014.6
20260510120613 56 341 1.0 1.0 0.00 0.00 0.00 99 1014.6
20260510120108 56 28 0.0 0.0 0.00 0.00 0.00 99 1014.7
20260510115605 56 43 0.0 0.0 0.00 0.00 0.00 99 1014.6
20260510115103 55 47 0.0 0.0 0.00 0.00 0.00 99 1014.5
20260510114558 55 338 2.0 2.0 0.00 0.00 0.00 99 1014.5
20260510114054 55 332 1.0 2.0 0.00 0.00 0.00 99 1014.4
20260510113549 54 50 0.0 0.0 0.00 0.00 0.00 99 1014.3
20260510113048 54 50 0.0 0.0 0.00 0.00 0.00 99 1014.1
20260510112544 53 70 0.0 0.0 0.00 0.00 0.00 99 1014.2
20260510112040 53 76 0.0 0.0 0.00 0.00 0.00 99 1014.0
20260510111537 53 31 1.0 1.0 0.00 0.00 0.00 99 1014.0
20260510111033 52 58 0.0 0.0 0.00 0.00 0.00 99 1014.0
20260510110529 52 55 0.0 0.0 0.00 0.00 0.00 99 1013.8
20260510110026 51 79 0.0 0.0 0.00 0.00 0.00 99 1013.8
20260510105521 51 152 0.0 0.0 0.00 0.00 0.00 99 1013.7
20260510105016 51 47 0.0 0.0 0.00 0.00 0.00 99 1013.6
20260510104513 50 14 0.0 0.0 0.00 0.00 0.00 99 1013.6
20260510104009 50 64 0.0 0.0 0.00 0.00 0.00 99 1013.0
20260510103507 50 63 0.0 0.0 0.00 0.00 0.00 99 1013.0
20260510103002 50 100 0.0 0.0 0.00 0.00 0.00 99 1012.9
20260510102459 50 77 0.0 0.0 0.00 0.00 0.00 99 1013.0
20260510101955 50 73 0.0 0.0 0.00 0.00 0.00 99 1013.2
20260510101452 50 72 0.0 0.0 0.00 0.00 0.00 99 1013.0
20260510100950 50 71 0.0 0.0 0.00 0.00 0.00 99 1013.0
20260510100446 50 81 0.0 0.0 0.00 0.00 0.00 99 1012.9
20260510095943 50 99 0.0 0.0 0.00 0.00 0.00 99 1013.0
20260510095438 50 81 0.0 0.0 0.00 0.00 0.00 99 1013.1
20260510094937 51 81 0.0 0.0 0.00 0.00 0.00 99 1013.0
20260510094432 51 100 0.0 0.0 0.00 0.00 0.00 99 1013.0
20260510093928 51 86 0.0 0.0 0.00 0.00 0.00 99 1013.1
20260510093424 51 63 0.0 0.0 0.00 0.00 0.00 99 1013.2
20260510092921 52 152 0.0 0.0 0.00 0.00 0.00 99 1012.9
20260510092419 52 45 0.0 0.0 0.00 0.00 0.00 99 1013.0
20260510091918 51 95 0.0 0.0 0.00 0.00 0.00 99 1012.8
20260510091416 52 96 0.0 0.0 0.00 0.00 0.00 99 1012.8
20260510090912 52 108 0.0 0.0 0.00 0.00 0.00 99 1012.9
20260510090409 51 118 0.0 0.0 0.00 0.00 0.00 99 1012.6
20260510085905 51 42 0.0 0.0 0.00 0.00 0.00 99 1012.9
20260510085400 51 45 0.0 0.0 0.00 0.00 0.00 99 1012.9
20260510084855 51 92 0.0 0.0 0.00 0.00 0.00 99 1012.6
20260510084354 52 108 0.0 0.0 0.00 0.00 0.00 99 1012.4
20260510083850 51 116 0.0 0.0 0.00 0.00 0.00 99 1012.5
20260510083346 51 112 0.0 0.0 0.00 0.00 0.00 99 1012.4
20260510082842 51 72 0.0 0.0 0.00 0.00 0.00 99 1012.4
20260510082339 51 90 0.0 0.0 0.00 0.00 0.00 99 1012.3
20260510081832 51 58 0.0 0.0 0.00 0.00 0.00 99 1012.5
20260510081329 51 73 0.0 0.0 0.00 0.00 0.00 99 1012.1
20260510080825 51 66 0.0 0.0 0.00 0.00 0.00 99 1012.2
20260510080319 51 72 0.0 0.0 0.00 0.00 0.00 99 1012.0
20260510075816 52 90 0.0 0.0 0.00 0.00 0.00 99 1012.1
20260510075308 51 112 0.0 0.0 0.00 0.00 0.00 99 1011.9
20260510074805 51 77 0.0 0.0 0.00 0.00 0.00 99 1011.9
20260510074302 51 63 0.0 0.0 0.00 0.00 0.00 99 1011.8
20260510073758 51 61 0.0 0.0 0.00 0.00 0.00 99 1011.9
20260510073254 51 50 0.0 0.0 0.00 0.00 0.00 99 1011.8
20260510072750 51 83 0.0 0.0 0.00 0.00 0.00 99 1011.7
20260510072247 52 86 0.0 0.0 0.00 0.00 0.00 99 1011.8
20260510071743 52 98 0.0 0.0 0.00 0.00 0.00 99 1011.9
20260510071240 52 74 0.0 0.0 0.00 0.00 0.00 99 1011.9
20260510070738 52 67 0.0 0.0 0.00 0.00 0.00 99 1011.8
20260510070234 52 63 0.0 0.0 0.00 0.00 0.00 99 1011.6
20260510065729 52 78 0.0 0.0 0.00 0.00 0.00 99 1011.6
20260510065226 52 101 0.0 0.0 0.00 0.00 0.00 99 1011.5
20260510064722 52 103 0.0 0.0 0.00 0.00 0.00 99 1011.5
20260510064220 52 69 0.0 0.0 0.00 0.00 0.00 99 1011.4
20260510063717 52 69 0.0 0.0 0.00 0.00 0.00 99 1011.5
20260510063213 53 94 0.0 0.0 0.00 0.00 0.00 99 1011.5
20260510062710 53 91 0.0 0.0 0.00 0.00 0.00 99 1011.6
20260510062206 53 76 0.0 0.0 0.00 0.00 0.00 99 1011.5
20260510061701 53 100 0.0 0.0 0.00 0.00 0.00 99 1011.4
20260510061158 53 73 0.0 0.0 0.00 0.00 0.00 99 1011.5
20260510060654 53 107 0.0 0.0 0.00 0.00 0.00 99 1011.6
20260510060151 53 74 0.0 0.0 0.00 0.00 0.00 99 1011.5
20260510055647 53 68 0.0 0.0 0.00 0.00 0.00 99 1011.7
20260510055145 53 61 0.0 0.0 0.00 0.00 0.00 99 1011.7
20260510054641 54 93 0.0 0.0 0.00 0.00 0.00 99 1011.5
20260510054137 54 78 0.0 0.0 0.00 0.00 0.00 99 1011.7
20260510053636 54 77 0.0 0.0 0.00 0.00 0.00 99 1011.6
20260510053133 54 47 0.0 0.0 0.00 0.00 0.00 98 1011.5
20260510052629 54 74 0.0 0.0 0.00 0.00 0.00 98 1011.6
20260510052125 54 77 0.0 0.0 0.00 0.00 0.00 98 1011.8
20260510051620 54 136 0.0 0.0 0.00 0.00 0.00 98 1011.6
20260510051118 54 99 0.0 0.0 0.00 0.00 0.00 98 1011.6
20260510050615 54 48 0.0 0.0 0.00 0.00 0.00 98 1011.6
20260510050112 55 77 0.0 0.0 0.00 0.00 0.00 98 1011.6
20260510045609 55 116 0.0 0.0 0.00 0.00 0.00 98 1011.8
20260510045105 55 93 0.0 0.0 0.00 0.00 0.00 98 1011.8
20260510044602 55 85 0.0 0.0 0.00 0.00 0.00 98 1011.6
20260510044059 55 66 0.0 0.0 0.00 0.00 0.00 98 1011.8
20260510043554 55 66 0.0 0.0 0.00 0.00 0.00 97 1012.0
20260510043051 55 100 0.0 0.0 0.00 0.00 0.00 97 1011.9
20260510042544 56 73 0.0 0.0 0.00 0.00 0.00 97 1011.9
20260510042040 56 32 0.0 0.0 0.00 0.00 0.00 97 1011.7
20260510041537 56 104 0.0 0.0 0.00 0.00 0.00 97 1011.7
20260510041035 56 59 0.0 0.0 0.00 0.00 0.00 96 1011.5
20260510040531 56 78 0.0 0.0 0.00 0.00 0.00 96 1011.7
20260510040027 56 92 0.0 0.0 0.00 0.00 0.00 96 1011.8
20260510035524 57 62 0.0 0.0 0.00 0.00 0.00 96 1011.6
20260510035023 57 70 0.0 0.0 0.00 0.00 0.00 96 1011.7
20260510034522 57 77 0.0 0.0 0.00 0.00 0.00 95 1011.7
20260510034018 56 63 0.0 0.0 0.00 0.00 0.00 95 1011.7
20260510033514 57 63 0.0 0.0 0.00 0.00 0.00 94 1011.7
20260510033012 57 63 0.0 0.0 0.00 0.00 0.00 94 1011.7
20260510032508 57 59 0.0 0.0 0.00 0.00 0.00 93 1011.7
20260510032003 57 70 0.0 0.0 0.00 0.00 0.00 92 1011.6
20260510031458 58 74 0.0 0.0 0.00 0.00 0.00 91 1011.7
20260510030954 58 79 0.0 0.0 0.00 0.00 0.00 90 1011.4
20260510030450 59 93 0.0 0.0 0.00 0.00 0.00 89 1011.3
20260510025947 59 75 0.0 0.0 0.00 0.00 0.00 89 1011.5
20260510025445 59 73 0.0 0.0 0.00 0.00 0.00 88 1011.3
20260510024942 59 74 0.0 0.0 0.00 0.00 0.00 87 1011.3
20260510024438 60 70 0.0 0.0 0.00 0.00 0.00 86 1011.5
20260510023934 60 87 0.0 0.0 0.00 0.00 0.00 86 1011.3
20260510023431 60 79 0.0 0.0 0.00 0.00 0.00 85 1011.4
20260510022928 60 142 0.0 0.0 0.00 0.00 0.00 85 1011.6
20260510022427 60 85 0.0 0.0 0.00 0.00 0.00 85 1011.5
20260510021926 60 185 0.0 0.0 0.00 0.00 0.00 85 1011.5
20260510021424 60 72 0.0 0.0 0.00 0.00 0.00 84 1011.4
20260510020921 60 83 0.0 0.0 0.00 0.00 0.00 84 1011.4
20260510020415 61 37 0.0 0.0 0.00 0.00 0.00 84 1011.5
20260510015911 61 91 1.0 1.0 0.00 0.00 0.00 83 1011.4
20260510015407 61 67 0.0 0.0 0.00 0.00 0.00 83 1011.3
20260510014857 61 82 0.0 0.0 0.00 0.00 0.00 84 1011.4
20260510014355 61 125 0.0 1.0 0.00 0.00 0.00 85 1011.3
20260510013851 61 313 1.0 2.0 0.00 0.00 0.00 87 1011.3
20260510013347 62 83 0.0 0.0 0.00 0.00 0.00 87 1011.1
20260510012841 62 111 1.0 1.0 0.00 0.00 0.00 87 1011.0
20260510012341 62 59 0.0 0.0 0.00 0.00 0.00 86 1011.1
20260510011836 62 61 0.0 1.0 0.00 0.00 0.00 86 1010.9
20260510011332 62 333 0.0 1.0 0.00 0.00 0.00 86 1011.0
20260510010828 62 151 1.0 1.0 0.00 0.00 0.00 85 1011.1
20260510010326 62 58 0.0 0.0 0.00 0.00 0.00 85 1011.0
20260510005822 62 64 0.0 0.0 0.00 0.00 0.00 84 1011.0
20260510005319 62 60 0.0 0.0 0.00 0.00 0.00 84 1011.0
20260510004817 62 73 0.0 0.0 0.00 0.00 0.00 83 1010.9
20260510004314 62 108 0.0 0.0 0.00 0.00 0.00 82 1010.8
20260510003811 62 70 0.0 0.0 0.00 0.00 0.00 83 1010.7
20260510003308 62 49 0.0 0.0 0.00 0.00 0.00 82 1010.8
20260510002807 63 93 0.0 0.0 0.00 0.00 0.00 81 1010.6
20260510002306 63 82 0.0 0.0 0.00 0.00 0.00 80 1010.7
20260510001800 63 55 0.0 0.0 0.00 0.00 0.00 79 1010.6
20260510001259 64 48 0.0 0.0 0.00 0.00 0.00 78 1010.6
20260510000754 64 117 0.0 0.0 0.00 0.00 0.00 78 1010.5
20260510000252 64 47 0.0 0.0 0.00 0.00 0.00 77 1010.5
20260509235749 64 52 0.0 0.0 0.00 0.00 0.00 76 1010.4
20260509235245 64 63 0.0 0.0 0.00 0.00 0.00 76 1010.4
20260509234741 64 71 0.0 0.0 0.00 0.00 0.00 75 1010.2
20260509234238 64 78 0.0 0.0 0.00 0.00 0.00 75 1010.2
20260509233737 65 78 0.0 0.0 0.00 0.00 0.00 74 1010.2
20260509233234 65 80 0.0 0.0 0.00 0.00 0.00 74 1010.1
20260509232730 66 83 0.0 0.0 0.00 0.00 0.00 74 1010.1
20260509232227 66 85 0.0 0.0 0.00 0.00 0.00 73 1009.9
20260509231723 66 60 0.0 0.0 0.00 0.00 0.00 73 1010.1
20260509231221 66 80 0.0 0.0 0.00 0.00 0.00 72 1010.1
20260509230718 66 120 1.0 1.0 0.00 0.00 0.00 72 1009.9
20260509230215 66 101 1.0 1.0 0.00 0.00 0.00 72 1009.8
20260509225710 66 70 0.0 0.0 0.00 0.00 0.00 72 1010.0
20260509225206 66 123 1.0 1.0 0.00 0.00 0.00 72 1009.9
20260509224657 66 37 1.0 1.0 0.00 0.00 0.00 71 1010.0
20260509224154 66 107 1.0 2.0 0.00 0.00 0.00 70 1010.0
20260509223650 67 83 0.0 0.0 0.00 0.00 0.00 70 1010.0
20260509223148 67 359 3.0 4.0 0.00 0.00 0.00 68 1010.0
20260509222645 67 90 1.0 2.0 0.00 0.00 0.00 70 1009.9
20260509222140 67 46 0.0 0.0 0.00 0.00 0.00 69 1009.8
20260509221636 68 12 1.0 2.0 0.00 0.00 0.00 69 1009.9
20260509221132 67 351 4.0 4.0 0.00 0.00 0.00 69 1009.9
20260509220628 67 350 1.0 2.0 0.00 0.00 0.00 70 1010.0
20260509220124 67 56 1.0 1.0 0.00 0.00 0.00 70 1009.9
20260509215621 67 330 4.0 4.0 0.00 0.00 0.00 69 1010.0
20260509215117 68 344 4.0 4.0 0.00 0.00 0.00 67 1010.0
20260509214615 68 28 1.0 2.0 0.00 0.00 0.00 68 1010.1
20260509214111 68 11 2.0 3.0 0.00 0.00 0.00 68 1010.1
20260509213607 67 11 4.0 6.0 0.00 0.00 0.00 69 1009.9
20260509213104 68 352 2.0 2.0 0.00 0.00 0.00 69 1010.0
20260509212602 68 31 3.0 3.0 0.00 0.00 0.00 68 1009.9
20260509212058 68 336 7.0 9.0 0.00 0.00 0.00 66 1009.9
20260509211554 68 345 2.0 3.0 0.00 0.00 0.00 68 1010.2
20260509211050 68 33 1.0 1.0 0.00 0.00 0.00 69 1009.9
20260509210547 68 345 3.0 3.0 0.00 0.00 0.00 69 1009.7
20260509210044 68 26 1.0 2.0 0.00 0.00 0.00 68 1009.9
20260509205538 68 26 2.0 3.0 0.00 0.00 0.00 69 1009.8
20260509205034 68 15 6.0 8.0 0.00 0.00 0.00 68 1009.8
20260509204530 69 356 4.0 4.0 0.00 0.00 0.00 68 1009.6
20260509204027 68 66 0.0 0.0 0.00 0.00 0.00 69 1009.5
20260509203522 68 39 0.0 1.0 0.00 0.00 0.00 68 1009.7
20260509203021 68 67 0.0 0.0 0.00 0.00 0.00 69 1009.9
20260509202515 68 26 2.0 2.0 0.00 0.00 0.00 70 1009.9
20260509202011 69 15 5.0 6.0 0.00 0.00 0.00 67 1009.9
20260509201506 68 40 0.0 1.0 0.00 0.00 0.00 68 1010.0
20260509201003 68 344 3.0 4.0 0.00 0.00 0.00 68 1010.2
20260509200458 67 10 2.0 3.0 0.00 0.00 0.00 69 1010.2
20260509195954 67 10 4.0 6.0 0.00 0.00 0.00 68 1010.3
20260509195450 68 343 5.0 7.0 0.00 0.00 0.00 67 1010.3
20260509194950 67 104 1.0 1.0 0.00 0.00 0.00 70 1010.5
20260509194446 67 339 4.0 4.0 0.00 0.00 0.00 72 1010.6
20260509193943 66 0 2.0 2.0 0.00 0.00 0.00 73 1010.6
20260509193443 66 15 2.0 2.0 0.00 0.00 0.00 74 1010.5
20260509192939 66 21 1.0 1.0 0.00 0.00 0.00 75 1010.6
20260509192436 66 23 1.0 2.0 0.00 0.00 0.00 76 1010.7
20260509191931 66 356 4.0 4.0 0.00 0.00 0.00 77 1010.7
20260509191426 66 338 2.0 2.0 0.00 0.00 0.00 77 1010.7
20260509190922 68 35 0.0 0.0 0.00 0.00 0.00 77 1011.0
20260509190420 65 47 0.0 0.0 0.00 0.00 0.00 81 1011.0
20260509185918 64 45 0.0 0.0 0.00 0.00 0.00 78 1011.0
20260509185415 64 49 0.0 0.0 0.00 0.00 0.00 76 1011.2
20260509184911 65 328 1.0 1.0 0.00 0.00 0.00 75 1011.2
20260509184408 65 34 0.0 0.0 0.00 0.00 0.00 72 1011.2
20260509183906 66 8 3.0 3.0 0.00 0.00 0.00 69 1011.2
20260509183405 66 42 0.0 1.0 0.00 0.00 0.00 69 1011.0
20260509182901 66 62 0.0 0.0 0.00 0.00 0.00 70 1011.2
20260509182358 66 39 1.0 1.0 0.00 0.00 0.00 69 1011.2
20260509181856 66 34 1.0 1.0 0.00 0.00 0.00 71 1011.1
20260509181348 65 52 0.0 0.0 0.00 0.00 0.00 72 1011.6
20260509180845 65 84 0.0 0.0 0.00 0.00 0.00 73 1011.6
20260509180340 65 60 0.0 0.0 0.00 0.00 0.00 73 1011.7
20260509175838 65 15 1.0 1.0 0.00 0.00 0.00 72 1011.8
20260509175334 64 14 2.0 2.0 0.00 0.00 0.00 72 1011.6
20260509174830 64 5 2.0 2.0 0.00 0.00 0.00 73 1011.6
20260509174326 64 22 0.0 1.0 0.00 0.00 0.00 74 1011.7
20260509173822 64 16 1.0 1.0 0.00 0.00 0.00 76 1011.6
20260509173318 64 334 3.0 3.0 0.00 0.00 0.00 76 1011.8
20260509172814 64 329 1.0 2.0 0.00 0.00 0.00 73 1011.8
20260509172311 64 35 0.0 1.0 0.00 0.00 0.00 74 1011.7
20260509171806 64 357 2.0 3.0 0.00 0.00 0.00 72 1011.9
20260509171303 64 355 2.0 2.0 0.00 0.00 0.00 72 1011.8
20260509170759 64 74 0.0 0.0 0.00 0.00 0.00 72 1011.8
20260509170255 64 95 0.0 1.0 0.00 0.00 0.00 72 1011.8
20260509165754 64 21 2.0 2.0 0.00 0.00 0.00 71 1011.5
20260509165249 64 22 2.0 3.0 0.00 0.00 0.00 72 1011.8
20260509164745 64 44 3.0 3.0 0.00 0.00 0.00 69 1011.7
20260509164241 64 53 0.0 0.0 0.00 0.00 0.00 71 1011.9
20260509163738 64 32 3.0 3.0 0.00 0.00 0.00 69 1011.8
20260509163234 65 48 0.0 0.0 0.00 0.00 0.00 69 1011.7
20260509162733 64 52 0.0 0.0 0.00 0.00 0.00 69 1011.9
20260509162222 65 15 4.0 6.0 0.00 0.00 0.00 69 1011.9
20260509161718 65 157 2.0 2.0 0.00 0.00 0.00 68 1011.8
20260509161214 65 248 2.0 2.0 0.00 0.00 0.00 67 1012.0
20260509160709 67 343 6.0 7.0 0.00 0.00 0.00 64 1012.0
20260509160205 69 340 3.0 3.0 0.00 0.00 0.00 61 1012.0
20260509155701 69 63 0.0 0.0 0.00 0.00 0.00 62 1012.1
20260509155158 69 124 1.0 2.0 0.00 0.00 0.00 62 1011.8
20260509154654 70 44 1.0 1.0 0.00 0.00 0.00 59 1012.3
20260509154151 69 73 0.0 1.0 0.00 0.00 0.00 61 1011.8
20260509153648 70 353 4.0 4.0 0.00 0.00 0.00 62 1011.9
20260509153145 68 18 1.0 1.0 0.00 0.00 0.00 64 1012.1
20260509152640 68 333 2.0 3.0 0.00 0.00 0.00 63 1012.1
20260509152138 67 33 3.0 3.0 0.00 0.00 0.00 64 1012.3
20260509151634 66 6 2.0 2.0 0.00 0.00 0.00 66 1012.4
20260509151132 66 21 1.0 1.0 0.00 0.00 0.00 64 1012.6
20260509150630 66 28 2.0 2.0 0.00 0.00 0.00 65 1012.6
20260509150128 65 347 2.0 2.0 0.00 0.00 0.00 66 1012.8
20260509145624 65 26 2.0 2.0 0.00 0.00 0.00 65 1013.0
20260509145119 64 35 1.0 1.0 0.00 0.00 0.00 66 1013.0
20260509144615 64 12 1.0 2.0 0.00 0.00 0.00 67 1013.1
20260509144113 64 353 1.0 1.0 0.00 0.00 0.00 66 1012.9
20260509143609 64 33 2.0 2.0 0.00 0.00 0.00 67 1012.8
20260509143107 64 48 1.0 1.0 0.00 0.00 0.00 66 1012.8
20260509142602 64 41 0.0 0.0 0.00 0.00 0.00 67 1012.8
20260509142059 64 340 1.0 2.0 0.00 0.00 0.00 67 1013.0
20260509141555 64 126 0.0 0.0 0.00 0.00 0.00 66 1013.0
20260509141052 64 69 1.0 2.0 0.00 0.00 0.00 65 1012.9
20260509140549 64 21 0.0 1.0 0.00 0.00 0.00 67 1013.2
20260509140047 64 36 0.0 1.0 0.00 0.00 0.00 68 1012.8
20260509135544 64 43 0.0 0.0 0.00 0.00 0.00 68 1013.1
20260509135041 63 53 0.0 1.0 0.00 0.00 0.00 68 1013.0